Temperature
7 7 7 7 8 7 7 9 9 11 10 11 11 10 9 8 7 7 7 7 7 7 6 6 6 6 6 6 6 5 5 5 5 4 4 4 4 4 3 3 3 3 3 2
6 6 6 6 7 7 7 8 8 9 9 11 10 8 8 7 7 7 7 7 6 6 6 6 6 6 6 6 6 5 5 5 4 4 4 4 3 3 3 3 3 2 2 2
7 7 7 8 9 8 7 7 8 8 10 10 9 8 8 7 7 6 6 6 6 6 6 6 6 6 6 6 6 5 5 5 4 4 4 4 3 3 3 3 2 2 2 2
6 7 8 10 7 7 7 8 8 8 9 9 8 7 7 7 6 7 7 6 6 6 6 6 6 6 6 6 5 5 5 5 4 4 4 3 3 3 2 2 2 2 1 1
6 7 9 10 7 7 7 8 8 7 8 8 6 6 8 8 7 7 6 6 6 6 6 6 6 6 5 5 5 5 5 5 4 4 4 3 3 3 2 2 2 1 1 1
6 6 9 10 7 6 7 9 8 7 7 7 6 8 9 7 7 6 6 6 6 6 5 5 5 5 5 5 5 5 5 5 4 4 3 3 3 2 2 2 1 1 1 0
5 6 8 9 6 6 8 10 7 6 7 6 6 8 7 6 6 6 6 6 5 5 5 5 5 5 5 5 5 5 4 4 4 3 3 3 2 2 2 1 1 1 0 -0
5 5 7 7 6 7 9 7 6 6 6 6 6 6 6 5 6 5 5 5 5 5 5 5 5 5 5 5 5 4 4 4 3 3 3 2 2 2 1 1 1 0 -0 -0
7 8 8 6 7 7 6 6 6 6 6 5 5 5 5 5 5 5 5 5 5 5 5 5 5 4 4 4 4 4 4 3 3 3 2 2 2 1 1 0 0 -0 -0 -1
5 7 7 6 6 6 5 5 5 5 5 5 4 4 4 5 5 5 5 5 5 5 5 5 5 4 4 4 4 3 3 3 3 2 2 2 1 1 1 0 -0 -1 -1 -1
5 6 6 6 6 6 5 5 5 5 5 4 4 4 4 4 4 4 4 4 4 4 4 4 4 4 4 3 3 3 3 3 2 2 2 2 1 1 0 0 -0 -1 -1 -2
7 7 6 6 5 5 5 4 4 4 4 4 4 4 4 4 4 4 4 4 4 4 4 4 4 4 4 3 3 3 2 2 2 2 1 1 1 0 0 -0 -1 -1 -2 -2
5 5 4 4 4 4 4 4 3 3 3 3 4 4 3 4 4 4 4 3 3 3 3 3 3 3 3 3 3 2 2 2 1 1 1 1 0 0 -0 -1 -1 -1 -2 -2
4 3 3 4 3 3 3 3 3 3 3 3 3 3 3 3 3 3 3 3 3 3 3 3 3 3 3 2 2 2 2 1 1 1 1 0 -0 -0 -1 -1 -2 -2 -2 -3
3 3 3 3 3 3 3 3 3 3 3 3 3 3 3 3 3 3 3 3 3 3 3 3 3 3 2 2 2 2 1 1 1 0 0 -0 -1 -1 -1 -2 -2 -3 -3 -3
3 2 2 2 3 3 3 3 3 3 3 3 3 3 3 3 3 3 3 3 2 2 3 2 2 2 2 2 2 1 1 1 0 -0 -0 -1 -1 -1 -2 -2 -3 -3 -3 -4
2 2 2 2 2 2 2 2 3 3 3 3 3 3 2 2 2 3 3 2 2 2 2 2 2 2 2 1 1 1 0 0 -0 -1 -1 -1 -1 -2 -2 -3 -3 -3 -4 -4
2 2 2 2 2 2 2 2 2 2 2 2 2 2 2 2 2 2 2 2 2 2 2 2 2 1 1 1 0 0 -0 -0 -1 -1 -1 -2 -2 -2 -3 -3 -3 -4 -4 -4
3 3 3 2 2 2 2 2 2 2 2 2 2 2 2 2 2 2 2 2 2 2 2 1 1 1 0 0 -0 -0 -1 -1 -1 -2 -2 -2 -3 -3 -3 -4 -4 -4 -5 -5
3 3 2 2 2 2 2 2 2 2 2 2 2 2 2 2 2 2 1 1 2 1 1 1 1 0 -0 -0 -1 -1 -1 -1 -2 -2 -2 -3 -3 -3 -4 -4 -4 -5 -5 -5
2 2 2 2 2 2 2 2 1 1 1 1 1 1 1 1 1 1 1 1 2 1 1 0 0 0 -0 -1 -1 -1 -1 -2 -2 -2 -3 -3 -3 -4 -4 -4 -5 -5 -5 -6
2 2 2 2 2 2 2 1 1 1 1 1 1 1 1 1 1 1 1 1 1 0 0 -0 -0 -0 -1 -1 -1 -1 -2 -2 -2 -3 -3 -3 -4 -4 -4 -5 -5 -6 -6 -6
1 1 1 1 1 1 1 1 1 1 1 1 1 1 1 0 0 0 0 1 0 -0 -0 -0 -0 -1 -1 -1 -1 -2 -2 -2 -3 -3 -3 -4 -4 -4 -5 -5 -6 -6 -6 -6
1 1 1 1 0 0 1 1 1 1 0 0 0 0 0 -0 -0 0 -0 -0 -0 -0 -1 -1 -1 -1 -1 -2 -2 -2 -2 -3 -3 -3 -4 -4 -4 -5 -5 -6 -6 -6 -6 -7
0 0 0 0 -0 -0 0 0 0 0 0 -0 0 0 -0 -0 -1 -1 -1 -1 -1 -1 -1 -1 -1 -2 -2 -2 -2 -2 -3 -3 -3 -4 -4 -4 -5 -5 -6 -6 -6 -6 -6 -7
-0 -0 -0 -0 -0 -0 -0 -1 -1 -0 -1 -1 -1 -0 -1 -1 -1 -1 -1 -1 -1 -1 -1 -1 -2 -2 -2 -2 -3 -3 -3 -4 -4 -4 -4 -5 -5 -5 -6 -6 -6 -7 -7 -7
-1 -1 -1 -0 -0 -0 -1 -1 -1 -1 -1 -1 -1 -1 -1 -1 -1 -1 -2 -2 -2 -2 -2 -2 -2 -2 -3 -3 -3 -3 -4 -4 -4 -4 -5 -5 -6 -6 -6 -6 -7 -7 -7 -7
Wind_Speed
8 8 7 10 11 12 14 13 10 11 12 14 11 10 10 9 8 8 7 6 6 6 6 6 5 5 5 6 6 6 7 7 7 6 6 5 5 4 4 3 3 3 2 2
5 4 7 12 15 16 16 16 18 19 18 13 9 8 8 8 7 8 8 8 7 7 7 7 6 6 6 6 6 7 8 8 7 7 6 6 6 5 5 5 4 4 3 3
4 5 8 9 10 12 9 11 11 14 11 7 7 8 8 8 8 9 9 8 8 8 7 7 6 6 6 6 6 7 8 8 8 8 7 7 7 6 6 6 5 5 5 4
5 6 6 0 2 5 9 10 12 13 11 9 9 10 10 9 9 9 8 8 8 7 7 7 6 6 6 5 6 7 8 8 8 8 8 7 7 7 7 6 6 6 5 5
3 5 9 5 2 4 5 6 7 12 13 10 8 8 7 4 6 8 9 8 8 7 7 7 6 5 5 6 6 7 8 9 8 8 8 8 8 8 7 6 6 6 5 6
4 4 5 1 2 2 3 4 1 5 7 5 4 6 6 4 6 8 8 7 7 7 7 7 6 5 6 7 7 8 9 8 8 8 9 9 8 8 6 6 6 6 6 6
8 7 8 4 3 4 3 2 1 3 5 4 6 8 8 8 9 9 9 8 7 7 7 7 6 5 7 7 9 8 7 7 8 8 9 9 8 7 7 6 6 6 6 6
7 7 7 4 6 5 4 3 4 5 6 7 9 11 11 11 10 9 9 8 7 7 7 7 6 6 8 9 8 6 6 7 8 8 7 7 8 7 7 7 6 6 6 6
9 8 2 4 6 5 4 6 7 7 8 9 11 12 12 12 11 10 9 8 7 8 8 7 6 7 9 9 6 6 7 8 7 7 7 7 8 8 7 6 6 6 6 6
8 11 11 10 11 10 9 10 11 10 11 10 12 13 13 11 11 10 9 8 7 8 9 9 7 8 9 8 6 7 8 8 7 7 7 8 7 7 7 7 7 7 7 7
10 11 10 8 7 8 9 9 10 11 10 11 12 13 12 12 11 10 9 8 7 8 9 10 9 8 8 7 6 8 8 7 7 7 7 7 7 7 8 8 8 8 7 7
10 8 7 10 8 9 10 11 11 11 11 11 10 12 12 11 11 10 9 9 8 9 10 10 9 9 8 7 7 8 7 7 7 6 6 6 6 6 9 9 10 12 11 9
11 9 11 13 12 10 10 11 11 10 11 12 10 10 10 10 10 9 9 10 10 10 10 10 9 9 8 7 7 9 9 8 6 7 7 7 7 6 6 7 10 12 13 13
11 9 10 9 10 10 10 10 10 9 9 9 9 9 9 9 9 10 10 10 10 10 10 10 10 10 8 7 8 9 9 9 8 7 7 7 7 7 6 6 6 6 9 12
9 8 9 10 11 10 8 7 8 9 9 9 8 8 8 9 10 10 10 9 9 10 10 10 10 10 7 6 8 9 8 7 7 7 7 7 6 6 6 7 6 5 5 6
6 7 7 8 9 9 8 8 8 9 9 10 9 9 9 9 10 11 10 8 8 10 10 10 11 9 6 7 7 7 7 9 8 6 6 6 6 6 6 6 6 6 6 6
5 5 5 6 8 9 8 8 9 10 10 10 10 10 9 9 10 11 10 9 9 10 10 10 11 8 7 7 7 6 6 7 9 7 7 7 7 7 7 7 7 7 7 7
8 8 8 9 9 10 10 10 10 10 10 10 10 9 10 10 11 12 11 9 9 10 10 9 8 7 7 7 6 6 6 6 6 7 7 6 7 6 7 7 7 8 6 6
6 7 8 9 9 9 10 11 11 10 10 10 10 10 11 11 11 11 10 9 10 11 9 7 7 7 7 7 6 5 6 6 6 6 6 7 7 6 7 7 7 7 6 6
5 6 8 9 9 9 10 11 11 11 10 9 10 11 12 12 10 10 9 10 10 9 8 7 6 6 6 6 7 5 6 7 7 6 6 6 7 7 7 7 7 7 6 6
7 8 9 9 10 10 11 11 10 12 11 10 10 12 13 12 10 9 9 10 9 7 7 8 6 6 6 6 7 6 6 7 7 7 7 7 7 7 7 7 7 7 6 6
8 9 10 10 11 12 11 10 10 12 12 12 12 12 12 12 11 10 11 10 10 7 6 6 6 7 7 7 6 6 7 7 6 6 7 7 7 7 7 7 7 6 6 6
10 10 11 12 12 12 12 12 12 11 12 12 12 12 12 11 9 9 10 7 6 8 7 7 8 10 10 7 6 6 7 7 7 7 7 7 7 7 7 7 6 6 6 6
11 11 12 12 11 12 14 14 11 10 12 12 12 12 11 10 9 9 9 9 9 10 8 9 11 11 10 6 6 6 6 7 7 7 7 6 6 6 6 6 6 6 6 6
11 12 12 11 12 12 13 12 12 12 12 10 11 11 9 8 9 9 7 8 10 10 8 9 11 11 8 6 6 6 6 6 6 6 6 6 6 6 6 6 6 6 5 6
12 12 11 12 12 12 11 10 10 10 10 10 10 9 8 7 8 8 8 8 9 10 8 7 7 7 6 6 6 6 6 6 7 7 6 6 6 6 6 6 7 6 5 5
12 11 11 11 11 10 10 10 10 11 10 10 11 9 8 8 7 8 8 7 7 7 6 6 6 6 5 5 6 6 6 6 6 6 6 6 5 5 6 6 5 5 4 4
Wind_Direction
269 271 260 255 247 228 224 233 249 265 271 280 291 293 292 291 289 288 286 286 284 283 282 275 266 259 251 243 229 218 215 217 221 221 217 215 212 212 213 217 226 238 247 258
279 260 265 264 253 240 238 242 249 265 276 284 292 288 287 285 283 282 283 287 287 283 281 276 268 262 255 246 230 219 219 221 219 214 211 211 213 212 213 218 223 229 238 248
280 308 296 267 247 222 221 224 233 248 260 284 291 291 291 288 283 281 285 286 283 280 277 276 272 263 256 250 231 220 222 222 216 212 213 214 212 213 216 219 222 227 232 238
295 311 258 283 88 211 226 245 235 248 265 278 287 297 289 278 273 281 287 287 285 281 278 277 274 263 257 247 229 223 224 223 218 214 216 215 214 218 222 223 225 229 232 236
266 286 281 286 209 193 221 267 237 241 262 277 297 300 285 270 268 279 286 286 283 277 275 274 270 262 251 240 228 225 226 225 219 215 216 215 217 220 221 221 225 228 231 237
235 261 265 325 132 181 226 265 229 229 260 276 291 297 312 333 305 295 291 285 281 279 275 268 264 252 242 239 232 232 230 227 220 216 216 218 219 219 217 219 225 226 232 236
230 246 269 270 157 165 244 332 360 258 265 255 253 279 305 307 299 295 292 287 281 274 268 264 260 244 242 243 241 241 236 227 220 216 217 219 217 213 212 215 221 226 235 238
203 222 255 167 158 209 280 326 301 287 280 273 276 287 292 293 292 294 293 288 281 272 269 268 255 243 247 249 249 242 230 224 221 217 214 213 212 210 210 212 220 228 236 244
210 229 291 182 220 264 291 287 291 289 287 285 286 287 290 290 290 290 288 285 279 272 273 270 254 242 250 256 252 236 227 226 223 218 214 211 210 209 209 213 221 229 233 241
253 262 266 266 267 269 269 273 283 284 284 283 282 285 287 287 287 287 286 282 279 274 272 271 263 252 251 256 244 229 230 228 221 217 215 212 212 211 211 213 219 226 231 237
255 273 286 273 260 275 286 285 285 285 281 280 282 282 283 285 286 285 284 280 273 268 269 272 272 264 258 251 235 231 232 229 223 218 217 216 216 217 219 223 223 225 231 235
257 268 271 286 298 302 295 293 294 293 292 288 281 280 285 285 285 285 282 280 275 270 269 272 272 268 260 245 231 229 232 229 223 219 217 217 219 227 227 231 232 234 238 239
263 279 282 287 293 293 291 294 296 291 287 288 287 283 282 284 286 285 282 277 273 273 274 275 273 269 262 243 228 227 230 228 224 220 218 216 217 220 230 229 230 235 238 240
262 273 278 281 290 298 297 297 295 290 284 283 285 285 282 282 284 283 280 280 280 279 277 275 271 268 262 243 230 231 232 227 223 223 221 219 219 222 225 227 229 233 233 236
258 255 264 284 292 296 299 297 295 294 294 292 288 284 283 283 284 285 286 286 283 278 275 274 272 271 266 243 233 232 230 226 222 223 222 221 220 221 223 227 232 234 231 230
277 278 270 274 285 295 298 294 290 291 293 293 292 289 288 286 286 287 286 281 277 277 279 277 273 272 263 243 235 233 231 223 218 220 220 218 217 219 221 222 226 229 229 227
258 272 274 282 286 291 290 286 283 285 288 286 287 292 292 291 289 287 285 280 274 273 274 272 272 271 254 237 230 230 230 222 212 219 221 218 218 221 222 222 225 230 231 225
237 251 262 268 277 286 290 289 285 284 282 285 290 290 286 283 284 287 290 291 286 281 273 266 263 259 249 236 229 228 225 222 218 220 221 220 222 223 223 225 228 232 234 228
248 257 266 269 270 276 280 285 285 283 282 283 282 280 279 278 278 281 285 282 278 279 279 267 251 251 249 237 224 226 224 223 223 223 222 222 225 226 225 226 229 231 229 226
264 267 271 275 275 272 276 280 283 283 281 279 280 282 282 280 279 278 278 273 267 267 271 268 262 257 249 237 221 226 223 222 223 223 221 222 224 226 225 226 228 229 230 229
276 279 281 282 283 279 276 277 278 280 282 279 274 276 279 283 280 274 272 277 276 264 262 257 254 252 245 234 223 227 225 225 224 223 222 224 226 227 226 226 226 228 230 231
277 280 283 284 284 285 283 279 275 277 280 280 276 274 276 279 278 271 261 261 272 264 265 261 256 245 240 239 235 230 228 228 229 226 224 225 225 226 226 225 226 227 229 230
278 278 280 281 281 285 287 283 276 274 275 274 274 273 271 271 272 270 276 268 263 259 260 259 251 246 246 243 237 232 230 230 229 228 227 227 226 226 226 224 225 226 227 227
279 280 279 282 283 284 284 284 279 274 272 274 270 267 266 271 271 259 258 267 264 264 264 258 253 251 248 243 234 231 231 231 230 230 229 227 225 224 223 223 224 225 225 226
276 278 279 280 282 281 280 282 283 280 277 277 275 271 262 254 258 269 269 264 261 262 264 258 252 249 244 240 232 231 230 230 230 228 226 223 221 221 221 220 220 222 223 225
273 275 276 274 274 277 280 280 280 280 281 281 281 278 271 263 258 262 264 261 259 258 258 257 249 241 237 234 232 231 231 231 231 228 224 221 220 219 219 218 219 220 222 223
272 273 275 277 274 269 268 269 271 274 274 273 279 281 278 273 267 263 262 262 260 256 254 251 244 236 232 231 232 231 228 225 223 221 218 216 214 214 214 213 214 215 217 219
Height
1521 1521 1521 1519 1517 1518 1518 1511 1507 1496 1496 1493 1495 1496 1496 1495 1494 1493 1492 1491 1489 1488 1487 1486 1485 1484 1484 1483 1482 1482 1481 1481 1481 1481 1480 1480 1479 1479 1478 1477 1476 1475 1474 1473
1522 1520 1520 1517 1511 1511 1511 1509 1504 1500 1496 1491 1493 1494 1493 1492 1491 1490 1489 1488 1486 1485 1484 1483 1481 1480 1480 1479 1478 1478 1477 1477 1477 1477 1477 1476 1476 1475 1474 1473 1473 1472 1470 1469
1516 1517 1515 1504 1497 1501 1502 1500 1499 1497 1491 1491 1492 1491 1491 1489 1488 1487 1485 1484 1483 1482 1480 1479 1478 1477 1476 1475 1474 1474 1473 1473 1473 1473 1472 1472 1472 1471 1470 1470 1469 1468 1467 1466
1520 1515 1509 1493 1498 1497 1497 1495 1495 1493 1490 1490 1490 1489 1487 1486 1484 1483 1482 1481 1479 1478 1477 1476 1474 1473 1472 1471 1470 1469 1469 1469 1468 1468 1468 1468 1467 1467 1466 1466 1465 1464 1463 1462
1521 1512 1499 1491 1496 1497 1496 1490 1489 1490 1488 1489 1489 1487 1483 1482 1481 1480 1479 1477 1476 1474 1473 1472 1471 1469 1468 1467 1466 1465 1464 1464 1464 1464 1463 1463 1463 1462 1462 1461 1460 1460 1459 1458
1520 1515 1498 1489 1495 1496 1497 1487 1486 1486 1486 1486 1487 1483 1479 1479 1478 1477 1475 1473 1472 1470 1469 1467 1466 1465 1464 1463 1461 1460 1460 1459 1459 1459 1459 1458 1458 1458 1457 1457 1456 1455 1454 1453
1517 1512 1495 1490 1494 1496 1492 1483 1486 1485 1485 1485 1484 1481 1479 1477 1475 1473 1471 1469 1468 1466 1464 1463 1462 1460 1459 1458 1457 1456 1455 1455 1454 1454 1454 1454 1453 1453 1452 1452 1451 1450 1449 1448
1511 1510 1496 1489 1491 1490 1485 1485 1484 1483 1483 1482 1480 1478 1475 1473 1471 1469 1467 1465 1463 1461 1460 1458 1457 1455 1454 1453 1452 1451 1450 1449 1449 1449 1449 1449 1448 1448 1447 1447 1446 1445 1444 1443
1498 1490 1486 1486 1486 1485 1484 1483 1482 1481 1480 1478 1476 1473 1471 1469 1466 1464 1462 1460 1459 1457 1455 1454 1452 1451 1449 1448 1447 1446 1445 1444 1444 1444 1443 1443 1443 1443 1442 1441 1441 1440 1439 1438
1494 1485 1484 1484 1483 1482 1482 1480 1478 1477 1475 1473 1471 1468 1466 1464 1461 1459 1457 1455 1453 1451 1450 1448 1447 1446 1444 1443 1441 1440 1439 1439 1438 1438 1438 1438 1437 1437 1437 1436 1435 1434 1433 1432
1488 1482 1481 1479 1478 1478 1477 1475 1474 1472 1470 1468 1466 1463 1461 1458 1456 1454 1452 1450 1448 1446 1444 1443 1441 1440 1438 1437 1436 1434 1434 1433 1432 1432 1432 1432 1432 1431 1431 1431 1430 1429 1428 1427
1478 1478 1478 1476 1475 1474 1472 1471 1469 1467 1464 1463 1461 1458 1456 1453 1451 1449 1447 1445 1443 1441 1439 1437 1435 1434 1433 1431 1430 1429 1427 1427 1426 1426 1426 1425 1425 1425 1425 1425 1424 1423 1422 1422
1475 1474 1474 1472 1470 1469 1467 1465 1463 1461 1459 1457 1455 1453 1451 1448 1446 1444 1442 1439 1437 1435 1433 1431 1429 1428 1427 1425 1424 1423 1421 1421 1420 1420 1419 1419 1419 1419 1419 1419 1418 1417 1416 1416
1471 1470 1468 1467 1466 1464 1462 1460 1458 1456 1454 1452 1450 1448 1446 1443 1441 1439 1437 1434 1432 1429 1427 1425 1423 1421 1420 1419 1417 1416 1415 1414 1414 1413 1413 1413 1413 1413 1413 1412 1412 1411 1411 1410
1465 1465 1464 1462 1461 1459 1457 1455 1453 1451 1449 1447 1446 1443 1441 1439 1436 1434 1431 1429 1426 1423 1421 1419 1417 1415 1414 1412 1411 1409 1409 1408 1408 1407 1407 1407 1407 1407 1407 1407 1406 1405 1405 1405
1461 1460 1459 1458 1456 1454 1453 1451 1449 1447 1445 1443 1441 1439 1437 1434 1431 1429 1426 1423 1420 1418 1415 1413 1411 1409 1408 1406 1404 1403 1402 1402 1402 1401 1401 1401 1401 1401 1401 1400 1400 1399 1399 1399
1457 1455 1455 1454 1452 1450 1449 1447 1445 1443 1440 1438 1436 1434 1432 1429 1426 1423 1421 1418 1415 1412 1410 1407 1405 1403 1402 1400 1398 1397 1396 1396 1395 1395 1395 1395 1395 1395 1395 1394 1394 1394 1393 1393
1452 1452 1451 1450 1448 1446 1444 1442 1440 1438 1436 1434 1431 1429 1426 1424 1421 1418 1415 1412 1409 1406 1404 1402 1399 1397 1396 1394 1393 1391 1390 1390 1389 1389 1389 1389 1389 1389 1389 1388 1388 1388 1388 1388
1449 1448 1447 1446 1444 1442 1440 1437 1435 1433 1431 1428 1426 1423 1420 1418 1415 1412 1409 1406 1403 1400 1398 1396 1393 1391 1390 1388 1387 1386 1385 1384 1384 1383 1383 1383 1383 1383 1383 1383 1382 1382 1382 1382
1445 1444 1443 1441 1440 1437 1435 1432 1430 1427 1425 1423 1420 1417 1414 1411 1409 1406 1402 1399 1397 1394 1392 1390 1388 1386 1384 1383 1382 1380 1380 1379 1378 1378 1377 1377 1377 1377 1377 1377 1377 1376 1376 1376
1441 1440 1438 1436 1434 1432 1429 1426 1424 1421 1419 1416 1414 1410 1407 1405 1402 1399 1395 1392 1390 1388 1386 1384 1382 1380 1379 1377 1376 1375 1374 1373 1373 1372 1372 1371 1371 1371 1371 1371 1371 1371 1371 1370
1436 1434 1432 1430 1428 1425 1423 1420 1417 1414 1412 1409 1406 1403 1400 1397 1395 1392 1389 1386 1383 1382 1380 1378 1376 1375 1373 1372 1370 1369 1369 1368 1367 1366 1366 1366 1365 1365 1365 1365 1365 1365 1365 1365
1430 1428 1426 1423 1421 1417 1415 1412 1410 1407 1404 1401 1399 1396 1393 1390 1387 1384 1381 1379 1377 1375 1373 1371 1370 1369 1368 1366 1365 1364 1363 1362 1361 1360 1360 1360 1360 1360 1359 1360 1360 1360 1360 1359
1423 1421 1418 1416 1413 1410 1406 1404 1402 1399 1396 1393 1391 1388 1385 1382 1379 1377 1374 1372 1370 1368 1367 1365 1364 1363 1361 1360 1359 1358 1357 1356 1355 1355 1354 1354 1354 1354 1354 1354 1354 1354 1354 1354
1416 1413 1411 1408 1405 1401 1398 1395 1392 1390 1387 1385 1382 1380 1377 1374 1371 1369 1367 1365 1363 1361 1360 1358 1357 1356 1355 1353 1353 1352 1351 1350 1349 1349 1348 1348 1348 1348 1348 1349 1349 1349 1349 1349
1407 1404 1402 1399 1397 1393 1390 1387 1384 1381 1379 1376 1373 1371 1369 1366 1364 1361 1359 1357 1356 1354 1353 1351 1350 1349 1348 1347 1346 1346 1345 1344 1343 1343 1342 1342 1342 1343 1343 1343 1344 1344 1344 1344
1397 1395 1392 1389 1387 1385 1382 1379 1376 1373 1371 1368 1365 1363 1361 1358 1356 1354 1352 1350 1348 1347 1346 1345 1343 1342 1342 1341 1340 1339 1339 1338 1338 1337 1337 1337 1337 1337 1338 1338 1339 1339 1340 1340